| time (UTC) | temp C | wind direction | speed KPH | gust KPH | rain 1hr cm | rain 24hr cm | rain mn cm | humidity % | barometer mb |
| 20260906190111 | 26 | 41 | 0.0 | 4.8 | 0.00 | 0.00 | 0.00 | 80 | 1017.2 |
| 20260906184552 | 26 | 293 | 0.0 | 3.2 | 0.00 | 0.00 | 0.00 | 77 | 1017.4 |
| 20260906183048 | 27 | 0 | 0.0 | 3.2 | 0.00 | 0.00 | 0.00 | 77 | 1016.8 |
| 20260906181554 | 27 | 267 | 0.0 | 3.2 | 0.00 | 0.00 | 0.00 | 78 | 1016.8 |
| 20260906180051 | 27 | 0 | 0.0 | 4.8 | 0.00 | 0.00 | 0.00 | 79 | 1016.5 |
| 20260906174548 | 26 | 254 | 0.0 | 4.8 | 0.00 | 0.00 | 0.00 | 80 | 1016.6 |
| 20260906173043 | 26 | 283 | 0.0 | 9.7 | 0.00 | 0.00 | 0.00 | 81 | 1016.5 |
| 20260906171555 | 26 | 262 | 4.8 | 9.7 | 0.00 | 0.00 | 0.00 | 81 | 1016.7 |
| 20260906170052 | 26 | 255 | 1.6 | 9.7 | 0.00 | 0.00 | 0.00 | 82 | 1016.7 |
| 20260906164549 | 26 | 263 | 1.6 | 8.0 | 0.00 | 0.25 | 0.00 | 82 | 1017.0 |
| 20260906163049 | 26 | 0 | 0.0 | 3.2 | 0.00 | 0.25 | 0.00 | 83 | 1016.6 |
| 20260906161553 | 26 | 94 | 0.0 | 3.2 | 0.00 | 0.25 | 0.00 | 83 | 1016.6 |
| 20260906160107 | 26 | 221 | 0.0 | 6.4 | 0.00 | 0.25 | 0.00 | 84 | 1016.4 |
| 20260906154556 | 25 | 0 | 0.0 | 4.8 | 0.00 | 0.25 | 0.00 | 84 | 1016.3 |
| 20260906153055 | 25 | 122 | 0.0 | 6.4 | 0.00 | 0.25 | 0.00 | 84 | 1016.4 |
| 20260906151552 | 25 | 0 | 0.0 | 3.2 | 0.00 | 0.25 | 0.00 | 84 | 1016.1 |
| 20260906150056 | 25 | 0 | 0.0 | 6.4 | 0.00 | 0.25 | 0.00 | 85 | 1016.0 |
| 20260906144542 | 25 | 259 | 0.0 | 12.9 | 0.00 | 0.25 | 0.00 | 84 | 1016.2 |
| 20260906143041 | 25 | 110 | 0.0 | 6.4 | 0.00 | 0.25 | 0.00 | 86 | 1015.9 |
| 20260906141554 | 25 | 86 | 3.2 | 6.4 | 0.00 | 0.25 | 0.00 | 87 | 1015.8 |
| 20260906140051 | 25 | 98 | 3.2 | 8.0 | 0.00 | 0.25 | 0.00 | 88 | 1015.7 |
| 20260906134555 | 25 | 73 | 3.2 | 9.7 | 0.00 | 0.25 | 0.00 | 88 | 1015.7 |
| 20260906133112 | 25 | 130 | 3.2 | 9.7 | 0.00 | 0.25 | 0.00 | 89 | 1016.0 |
| 20260906131553 | 24 | 91 | 3.2 | 8.0 | 0.00 | 0.25 | 0.00 | 89 | 1015.8 |
| 20260906130049 | 24 | 127 | 1.6 | 4.8 | 0.00 | 0.25 | 0.00 | 90 | 1015.8 |
| 20260906124555 | 24 | 114 | 1.6 | 4.8 | 0.00 | 0.28 | 0.00 | 90 | 1015.7 |
| 20260906123054 | 24 | 153 | 3.2 | 4.8 | 0.00 | 0.28 | 0.00 | 90 | 1015.6 |
| 20260906121551 | 24 | 120 | 1.6 | 8.0 | 0.00 | 0.28 | 0.00 | 90 | 1015.8 |
| 20260906120048 | 24 | 106 | 1.6 | 4.8 | 0.00 | 0.28 | 0.00 | 90 | 1015.5 |
| 20260906114548 | 24 | 108 | 3.2 | 6.4 | 0.00 | 0.36 | 0.00 | 90 | 1015.3 |
| 20260906113054 | 24 | 105 | 3.2 | 8.0 | 0.00 | 0.36 | 0.00 | 90 | 1015.2 |
| 20260906111555 | 24 | 124 | 3.2 | 4.8 | 0.00 | 0.36 | 0.00 | 89 | 1015.1 |
| 20260906110046 | 25 | 120 | 1.6 | 6.4 | 0.00 | 0.36 | 0.00 | 89 | 1014.9 |
| 20260906104620 | 25 | 100 | 3.2 | 6.4 | 0.00 | 0.36 | 0.00 | 89 | 1015.0 |
| 20260906103053 | 25 | 82 | 3.2 | 8.0 | 0.00 | 0.36 | 0.00 | 89 | 1014.8 |
| 20260906101550 | 25 | 124 | 3.2 | 9.7 | 0.00 | 0.36 | 0.00 | 89 | 1015.0 |
| 20260906100047 | 25 | 120 | 3.2 | 6.4 | 0.00 | 0.36 | 0.00 | 89 | 1014.9 |
| 20260906094553 | 25 | 122 | 3.2 | 6.4 | 0.00 | 0.36 | 0.00 | 89 | 1014.7 |
| 20260906093108 | 25 | 112 | 1.6 | 4.8 | 0.00 | 0.36 | 0.00 | 89 | 1014.8 |
| 20260906091553 | 25 | 104 | 1.6 | 3.2 | 0.00 | 0.36 | 0.00 | 89 | 1015.0 |
| 20260906090050 | 25 | 112 | 3.2 | 4.8 | 0.00 | 0.36 | 0.00 | 88 | 1015.2 |
| 20260906084554 | 25 | 136 | 1.6 | 4.8 | 0.00 | 0.36 | 0.00 | 88 | 1015.4 |
| 20260906083052 | 25 | 111 | 1.6 | 3.2 | 0.00 | 0.36 | 0.00 | 88 | 1015.2 |
| 20260906081553 | 25 | 116 | 1.6 | 4.8 | 0.00 | 0.36 | 0.00 | 88 | 1015.0 |
| 20260906080047 | 25 | 123 | 1.6 | 4.8 | 0.00 | 0.36 | 0.00 | 88 | 1014.8 |
| 20260906074545 | 25 | 89 | 3.2 | 6.4 | 0.00 | 0.36 | 0.00 | 88 | 1014.6 |
| 20260906073053 | 25 | 93 | 1.6 | 3.2 | 0.00 | 0.36 | 0.00 | 88 | 1014.7 |
| 20260906071552 | 25 | 116 | 1.6 | 4.8 | 0.00 | 0.36 | 0.00 | 88 | 1015.0 |
| 20260906070049 | 25 | 115 | 1.6 | 4.8 | 0.00 | 0.36 | 0.00 | 88 | 1015.0 |
| 20260906064542 | 25 | 115 | 1.6 | 4.8 | 0.00 | 0.36 | 0.00 | 88 | 1015.0 |
| 20260906063054 | 25 | 103 | 1.6 | 3.2 | 0.00 | 0.36 | 0.00 | 87 | 1015.1 |
| 20260906061557 | 25 | 113 | 1.6 | 6.4 | 0.00 | 0.36 | 0.00 | 87 | 1015.1 |
| 20260906060049 | 25 | 122 | 1.6 | 4.8 | 0.00 | 0.36 | 0.00 | 87 | 1015.2 |
| 20260906054606 | 25 | 114 | 1.6 | 4.8 | 0.00 | 0.36 | 0.00 | 87 | 1015.2 |
| 20260906053056 | 25 | 139 | 1.6 | 4.8 | 0.00 | 0.36 | 0.00 | 87 | 1015.0 |
| 20260906051553 | 26 | 85 | 1.6 | 4.8 | 0.00 | 0.36 | 0.00 | 87 | 1014.9 |
| 20260906050109 | 26 | 105 | 1.6 | 3.2 | 0.00 | 0.36 | 0.00 | 87 | 1014.8 |
| 20260906044542 | 26 | 117 | 1.6 | 3.2 | 0.00 | 0.36 | 0.36 | 87 | 1015.0 |
| 20260906043051 | 26 | 103 | 0.0 | 3.2 | 0.00 | 0.36 | 0.36 | 86 | 1015.1 |
| 20260906041550 | 26 | 125 | 1.6 | 1.6 | 0.00 | 0.36 | 0.36 | 86 | 1015.1 |
| 20260906040048 | 26 | 135 | 0.0 | 1.6 | 0.00 | 0.36 | 0.36 | 85 | 1015.4 |
| 20260906034554 | 26 | 107 | 0.0 | 6.4 | 0.00 | 0.36 | 0.36 | 85 | 1015.5 |
| 20260906033105 | 26 | 103 | 1.6 | 3.2 | 0.00 | 0.36 | 0.36 | 85 | 1015.3 |
| 20260906031549 | 26 | 107 | 0.0 | 4.8 | 0.00 | 0.36 | 0.36 | 84 | 1015.1 |
| 20260906030055 | 26 | 111 | 0.0 | 1.6 | 0.00 | 0.36 | 0.36 | 83 | 1014.9 |
| 20260906024602 | 26 | 110 | 0.0 | 3.2 | 0.00 | 0.36 | 0.36 | 82 | 1014.7 |
| 20260906023048 | 27 | 117 | 0.0 | 3.2 | 0.00 | 0.36 | 0.36 | 81 | 1014.7 |
| 20260906021555 | 27 | 112 | 0.0 | 3.2 | 0.00 | 0.36 | 0.36 | 80 | 1014.6 |
| 20260906020055 | 27 | 124 | 0.0 | 4.8 | 0.00 | 0.36 | 0.36 | 79 | 1014.3 |
| 20260906014555 | 27 | 135 | 0.0 | 6.4 | 0.00 | 0.36 | 0.36 | 78 | 1014.2 |
| 20260906013043 | 27 | 0 | 0.0 | 1.6 | 0.00 | 0.36 | 0.36 | 77 | 1014.0 |
| 20260906011542 | 27 | 0 | 0.0 | 3.2 | 0.00 | 0.36 | 0.36 | 75 | 1013.9 |
| 20260906010054 | 28 | 117 | 1.6 | 3.2 | 0.00 | 0.36 | 0.36 | 74 | 1014.0 |
| 20260906004547 | 28 | 86 | 1.6 | 6.4 | 0.00 | 0.36 | 0.36 | 72 | 1013.9 |
| 20260906003043 | 28 | 128 | 0.0 | 6.4 | 0.00 | 0.36 | 0.36 | 70 | 1013.8 |
| 20260906001553 | 29 | 121 | 1.6 | 6.4 | 0.00 | 0.36 | 0.36 | 68 | 1013.7 |
| 20260906000053 | 30 | 143 | 3.2 | 8.0 | 0.00 | 0.36 | 0.36 | 67 | 1013.6 |
| 20260905234559 | 30 | 70 | 3.2 | 11.3 | 0.00 | 0.36 | 0.36 | 65 | 1013.7 |
| 20260905233044 | 30 | 34 | 3.2 | 8.0 | 0.00 | 0.36 | 0.36 | 63 | 1013.6 |
| 20260905231555 | 31 | 132 | 3.2 | 8.0 | 0.00 | 0.36 | 0.36 | 62 | 1013.4 |
| 20260905230120 | 31 | 98 | 3.2 | 6.4 | 0.00 | 0.36 | 0.36 | 59 | 1013.4 |
| 20260905224555 | 31 | 149 | 3.2 | 8.0 | 0.00 | 0.36 | 0.36 | 58 | 1013.3 |
| 20260905223052 | 32 | 124 | 3.2 | 9.7 | 0.00 | 0.36 | 0.36 | 57 | 1013.1 |
| 20260905221547 | 32 | 129 | 3.2 | 9.7 | 0.00 | 0.36 | 0.36 | 55 | 1013.0 |
| 20260905220047 | 32 | 125 | 3.2 | 12.9 | 0.00 | 0.36 | 0.36 | 55 | 1012.8 |
| 20260905214553 | 32 | 115 | 6.4 | 11.3 | 0.00 | 0.36 | 0.36 | 55 | 1012.9 |
| 20260905213052 | 32 | 159 | 4.8 | 9.7 | 0.00 | 0.36 | 0.36 | 55 | 1012.9 |
| 20260905211557 | 32 | 107 | 4.8 | 11.3 | 0.00 | 0.36 | 0.36 | 54 | 1013.2 |
| 20260905210048 | 32 | 95 | 4.8 | 9.7 | 0.00 | 0.36 | 0.36 | 53 | 1013.2 |
| 20260905204552 | 32 | 95 | 4.8 | 11.3 | 0.00 | 0.36 | 0.36 | 53 | 1013.1 |
| 20260905203056 | 31 | 132 | 4.8 | 11.3 | 0.00 | 0.36 | 0.36 | 56 | 1013.0 |
| 20260905201548 | 31 | 101 | 3.2 | 9.7 | 0.00 | 0.36 | 0.36 | 56 | 1013.0 |
| 20260905200104 | 31 | 119 | 3.2 | 8.0 | 0.00 | 0.36 | 0.36 | 53 | 1013.2 |
| 20260905194552 | 30 | 150 | 4.8 | 12.9 | 0.00 | 0.36 | 0.36 | 52 | 1013.3 |
| 20260905193104 | 28 | 104 | 3.2 | 8.0 | 0.00 | 0.36 | 0.36 | 57 | 1012.8 |
| 20260905191547 | 27 | 110 | 3.2 | 8.0 | 0.00 | 0.36 | 0.36 | 64 | 1012.5 |